When you browse on this site, cookies collect data to enhance your experience and personalize the content and advertising you see.
Visit our Privacy Policy to learn more. By continuing to use the site, you agree to this use of cookies and data.
  • In Lithuania
  • List of Countries
  • For 7 days
  • Water Temperature
  • Weather Map
  • Weather Widgets
  • user-avatar
    Login

    Hourly Weather Korablino

    Today, 25 August, Sunday

    Time Temperature Precipitation Wind Pressure Humidity
    00:00 +16°C° 0 mm 2 mps 752 mmHg 74%
    01:00 +16°C° 0 mm 2 mps 752 mmHg 78%
    02:00 +16°C° 0 mm 3 mps 752 mmHg 81%
    03:00 +15°C° 0 mm 2 mps 752 mmHg 82%
    04:00 +15°C° 0 mm 2 mps 752 mmHg 85%
    05:00 +14°C° 0 mm 3 mps 752 mmHg 88%
    06:00 +13°C° 0 mm 3 mps 752 mmHg 92%
    07:00 +16°C° 0 mm 3 mps 753 mmHg 86%
    08:00 +17°C° 0 mm 3 mps 753 mmHg 81%
    09:00 +18°C° 0 mm 3 mps 753 mmHg 76%
    10:00 +19°C° 0 mm 4 mps 753 mmHg 71%
    11:00 +20°C° 0 mm 4 mps 753 mmHg 65%
    12:00 +21°C° 0 mm 4 mps 753 mmHg 60%
    13:00 +21°C° 0 mm 4 mps 754 mmHg 59%
    14:00 +22°C° 0 mm 4 mps 754 mmHg 59%
    15:00 +22°C° 0 mm 4 mps 754 mmHg 58%
    16:00 +21°C° 0 mm 4 mps 754 mmHg 62%
    17:00 +21°C° 0 mm 3 mps 754 mmHg 66%
    18:00 +20°C° 0 mm 3 mps 754 mmHg 71%
    19:00 +19°C° 0 mm 3 mps 754 mmHg 74%
    20:00 +17°C° 0 mm 3 mps 755 mmHg 78%
    21:00 +16°C° 0 mm 2 mps 755 mmHg 82%
    22:00 +15°C° 0 mm 2 mps 755 mmHg 85%
    23:00 +14°C° 0 mm 2 mps 756 mmHg 88%

    Tomorrow, 26 August, Monday

    Time Temperature Precipitation Wind Pressure Humidity
    00:00 +13°C° 0 mm 2 mps 756 mmHg 90%
    01:00 +13°C° 0 mm 2 mps 756 mmHg 91%
    02:00 +12°C° 0 mm 1 mps 756 mmHg 91%
    03:00 +12°C° 0 mm 1 mps 756 mmHg 92%
    04:00 +12°C° 0 mm 1 mps 756 mmHg 92%
    05:00 +12°C° 0 mm 1 mps 756 mmHg 92%
    06:00 +12°C° 0 mm 1 mps 756 mmHg 92%
    07:00 +13°C° 0 mm 1 mps 756 mmHg 86%
    08:00 +15°C° 0 mm 1 mps 757 mmHg 80%
    09:00 +16°C° 0 mm 1 mps 757 mmHg 74%
    10:00 +17°C° 0 mm 0 mps 757 mmHg 69%
    11:00 +18°C° 0 mm 0 mps 756 mmHg 64%
    12:00 +19°C° 0 mm 0 mps 756 mmHg 58%
    13:00 +22°C° 0 mm 1 mps 756 mmHg 56%
    14:00 +22°C° 0 mm 1 mps 756 mmHg 54%
    15:00 +22°C° 0 mm 1 mps 755 mmHg 51%
    16:00 +22°C° 0 mm 1 mps 755 mmHg 55%
    17:00 +22°C° 0 mm 1 mps 754 mmHg 58%
    18:00 +22°C° 0 mm 1 mps 754 mmHg 62%
    19:00 +20°C° 0 mm 1 mps 754 mmHg 65%
    20:00 +19°C° 0 mm 1 mps 753 mmHg 69%
    21:00 +18°C° 0 mm 1 mps 753 mmHg 72%
    22:00 +16°C° 0 mm 2 mps 753 mmHg 74%
    23:00 +16°C° 0 mm 2 mps 753 mmHg 76%

    Day after tomorrow, 27 August, Tuesday

    Time Temperature Precipitation Wind Pressure Humidity
    00:00 +16°C° 0 mm 3 mps 753 mmHg 78%
    01:00 +14°C° 0 mm 3 mps 752 mmHg 79%
    02:00 +14°C° 0 mm 3 mps 752 mmHg 80%
    03:00 +14°C° 0 mm 3 mps 751 mmHg 80%
    04:00 +14°C° 0 mm 3 mps 751 mmHg 81%
    05:00 +14°C° 0 mm 4 mps 751 mmHg 82%
    06:00 +14°C° 0 mm 4 mps 750 mmHg 84%
    07:00 +15°C° 0 mm 4 mps 750 mmHg 81%
    08:00 +17°C° 0 mm 5 mps 750 mmHg 79%
    09:00 +19°C° 0 mm 5 mps 750 mmHg 77%
    10:00 +20°C° 0.3 mm 5 mps 749 mmHg 74%
    11:00 +21°C° 0.3 mm 5 mps 749 mmHg 71%
    12:00 +22°C° 0.3 mm 6 mps 749 mmHg 68%
    13:00 +22°C° 0.2 mm 6 mps 749 mmHg 66%
    14:00 +22°C° 0.2 mm 6 mps 749 mmHg 64%
    15:00 +22°C° 0.2 mm 6 mps 748 mmHg 63%
    16:00 +22°C° 0.1 mm 5 mps 748 mmHg 65%
    17:00 +21°C° 0.1 mm 4 mps 748 mmHg 67%
    18:00 +20°C° 0.1 mm 4 mps 748 mmHg 69%
    19:00 +19°C° 0 mm 4 mps 748 mmHg 70%
    20:00 +18°C° 0 mm 4 mps 748 mmHg 72%
    21:00 +15°C° 0 mm 4 mps 749 mmHg 73%
    22:00 +15°C° 0 mm 4 mps 749 mmHg 76%
    23:00 +14°C° 0 mm 4 mps 749 mmHg 78%

    28 August, Wednesday

    Time Temperature Precipitation Wind Pressure Humidity
    00:00 +13°C° 0 mm 4 mps 749 mmHg 80%
    01:00 +13°C° 0 mm 4 mps 749 mmHg 83%
    02:00 +12°C° 0 mm 4 mps 749 mmHg 85%
    03:00 +12°C° 0 mm 4 mps 749 mmHg 87%
    04:00 +11°C° 0 mm 4 mps 750 mmHg 86%
    05:00 +11°C° 0 mm 4 mps 750 mmHg 85%
    06:00 +9°C° 0 mm 5 mps 750 mmHg 84%
    07:00 +9°C° 0 mm 5 mps 751 mmHg 80%
    08:00 +10°C° 0 mm 6 mps 751 mmHg 75%
    09:00 +10°C° 0 mm 7 mps 751 mmHg 71%
    10:00 +11°C° 0 mm 6 mps 751 mmHg 67%
    11:00 +11°C° 0 mm 6 mps 752 mmHg 63%
    12:00 +13°C° 0 mm 6 mps 752 mmHg 59%
    13:00 +13°C° 0 mm 6 mps 752 mmHg 59%
    14:00 +14°C° 0 mm 6 mps 752 mmHg 59%
    15:00 +14°C° 0 mm 6 mps 752 mmHg 58%
    16:00 +14°C° 0 mm 5 mps 752 mmHg 61%
    17:00 +14°C° 0 mm 5 mps 752 mmHg 64%
    18:00 +13°C° 0 mm 4 mps 752 mmHg 67%
    19:00 +12°C° 0 mm 4 mps 753 mmHg 72%
    20:00 +11°C° 0 mm 3 mps 753 mmHg 76%
    21:00 +10°C° 0 mm 3 mps 753 mmHg 81%
    22:00 +9°C° 0 mm 3 mps 753 mmHg 83%
    23:00 +8°C° 0 mm 2 mps 754 mmHg 85%

    29 August, Thursday

    Time Temperature Precipitation Wind Pressure Humidity
    00:00 +8°C° 0 mm 2 mps 754 mmHg 86%
    01:00 +8°C° 0 mm 2 mps 754 mmHg 87%
    02:00 +7°C° 0 mm 2 mps 754 mmHg 88%
    03:00 +7°C° 0 mm 3 mps 754 mmHg 90%
    04:00 +7°C° 0 mm 3 mps 754 mmHg 91%
    05:00 +5°C° 0 mm 3 mps 755 mmHg 91%
    06:00 +5°C° 0 mm 3 mps 755 mmHg 92%
    07:00 +8°C° 0 mm 3 mps 755 mmHg 84%
    08:00 +9°C° 0 mm 3 mps 755 mmHg 75%
    09:00 +11°C° 0 mm 4 mps 755 mmHg 67%
    10:00 +12°C° 0 mm 4 mps 755 mmHg 62%
    11:00 +13°C° 0 mm 4 mps 755 mmHg 58%
    12:00 +14°C° 0 mm 4 mps 755 mmHg 53%
    13:00 +15°C° 0 mm 4 mps 755 mmHg 53%
    14:00 +15°C° 0 mm 4 mps 754 mmHg 53%
    15:00 +17°C° 0 mm 4 mps 754 mmHg 53%
    16:00 +15°C° 0 mm 4 mps 754 mmHg 57%
    17:00 +16°C° 0 mm 3 mps 754 mmHg 61%
    18:00 +16°C° 0 mm 2 mps 754 mmHg 65%
    19:00 +14°C° 0 mm 2 mps 754 mmHg 69%
    20:00 +13°C° 0 mm 2 mps 754 mmHg 73%
    21:00 +12°C° 0 mm 2 mps 754 mmHg 77%
    22:00 +12°C° 0 mm 2 mps 754 mmHg 79%
    23:00 +10°C° 0 mm 2 mps 754 mmHg 81%

    30 August, Friday

    Time Temperature Precipitation Wind Pressure Humidity
    00:00 +10°C° 0 mm 2 mps 754 mmHg 82%
    01:00 +10°C° 0 mm 2 mps 754 mmHg 81%
    02:00 +10°C° 0 mm 2 mps 754 mmHg 81%
    03:00 +10°C° 0 mm 2 mps 754 mmHg 80%
    04:00 +10°C° 0 mm 2 mps 753 mmHg 81%
    05:00 +10°C° 0 mm 2 mps 753 mmHg 82%
    06:00 +10°C° 0 mm 2 mps 753 mmHg 82%
    07:00 +12°C° 0 mm 2 mps 753 mmHg 80%
    08:00 +13°C° 0 mm 2 mps 753 mmHg 78%
    09:00 +14°C° 0 mm 2 mps 753 mmHg 76%
    10:00 +14°C° 0.1 mm 2 mps 753 mmHg 77%
    11:00 +14°C° 0.1 mm 2 mps 753 mmHg 79%
    12:00 +14°C° 0.1 mm 2 mps 754 mmHg 80%
    13:00 +14°C° 0 mm 2 mps 753 mmHg 80%
    14:00 +14°C° 0 mm 2 mps 753 mmHg 79%
    15:00 +15°C° 0 mm 2 mps 753 mmHg 79%
    16:00 +15°C° 0 mm 2 mps 753 mmHg 79%
    17:00 +15°C° 0 mm 2 mps 753 mmHg 79%
    18:00 +15°C° 0 mm 2 mps 753 mmHg 79%
    19:00 +13°C° 0 mm 2 mps 753 mmHg 82%
    20:00 +12°C° 0 mm 1 mps 753 mmHg 85%
    21:00 +11°C° 0 mm 1 mps 753 mmHg 89%
    22:00 +11°C° 0 mm 1 mps 753 mmHg 89%
    23:00 +10°C° 0 mm 1 mps 753 mmHg 89%
    Show more